Terminal Aerodrome Forecast
Issued by NWS St Louis, MO

Home | Current Version | Previous Version | Text Only | Print | Product List | Glossary On
Versions: 1 2 3 4 5 6 7 8 9 10 11 12 13
560
FTUS43 KLSX 030525
TAFCOU
TAF
KCOU 030525Z 0306/0406 08006KT P6SM BKN150
     FM032100 12007KT P6SM OVC060=

USA.gov is the U.S. government's official web portal to all federal, state and local government web resources and services.